Flag for Taiwan Weather past 2 weeks in Kaohsiung, Taiwan

Now
91 °F

Scattered clouds.


Feels Like: 111 °F
Forecast: 78 / 89 °F
Wind: 10 mph from West

Location: Kaohsiung International Airport

Current Time: Sep 2, 2014 at 1:29:02 PM

Latest Report: Sep 2, 2014 at 12:30 PM


Visibility: N/A

Pressure: 29.86 "Hg

Humidity: 71%

Dew point: 81 °F

Location of KaohsiungLocation

Historic Weather in Kaohsiung — Graph

°F

Kaohsiung temperature yesterday

Maximum temperature yesterday: 91 °F (at 11:30 AM)
Minimum temperature yesterday: 79 °F (at 12:00 AM)
Average temperature yesterday: 85 °F

Past Weeks' High & Low Weather Summary

 TemperatureHumidityPressure
High93 °F (Aug 26, 12:00 PM)94% (Aug 18, 10:30 PM)29.95 "Hg (Aug 18, 10:30 PM)
Low75 °F (Aug 21, 5:00 AM)55% (Aug 23, 9:30 AM)29.77 "Hg (Aug 18, 1:00 PM)
Average85 °F77%29.86 "Hg
* Reported Aug 18 12:00 Noon — Sep 2 12:30 PM, Kaohsiung, Weather by CustomWeather, © 2014

Note: Actual official high and low records may vary slightly from our data, if they occured in-between our weather recording intervals... More about our weather records

Advertising

Kaohsiung weather history for previous 24 hours

 ConditionsComfort  
Time TempWeatherWind HumidityBarometerVisibility
12:30 PM
Sep 2
91 °FScattered clouds.10 mph71%29.86 "HgN/A
12:00 PM90 °FScattered clouds.13 mph71%29.86 "HgN/A
11:30 AM90 °FScattered clouds.9 mph71%29.86 "HgN/A
11:00 AM88 °FPartly sunny.7 mph70%29.86 "HgN/A
10:30 AM88 °FPartly sunny.9 mph75%29.89 "HgN/A
10:00 AM88 °FPartly sunny.9 mph70%29.89 "HgN/A
9:30 AM88 °FScattered clouds.5 mph66%29.89 "HgN/A
9:00 AM88 °FPassing clouds.6 mph70%29.89 "HgN/A
8:30 AM86 °FPassing clouds.6 mph70%29.89 "HgN/A
8:00 AM84 °FScattered clouds.6 mph79%29.86 "HgN/A
7:30 AM84 °FScattered clouds.3 mph79%29.86 "HgN/A
7:00 AM81 °FScattered clouds.5 mph84%29.86 "HgN/A
6:30 AM81 °FScattered clouds.3 mph79%29.86 "HgN/A
6:00 AM79 °FScattered clouds.3 mph84%29.86 "HgN/A
5:00 AM79 °FPartly cloudy.6 mph84%29.86 "Hg6 mi
4:00 AM79 °FPassing clouds.6 mph89%29.86 "Hg6 mi
3:00 AM81 °FPassing clouds.3 mph84%29.86 "Hg6 mi
2:00 AM81 °FPassing clouds.3 mph84%29.86 "Hg6 mi
1:00 AM81 °FPartly cloudy.5 mph89%29.89 "Hg6 mi
12:00 AM81 °FPartly cloudy.5 mph89%29.89 "Hg6 mi
11:30 PM
Sep 1
81 °FPartly cloudy.7 mph89%29.89 "Hg6 mi
11:00 PM82 °FPassing clouds.5 mph89%29.89 "Hg6 mi
10:30 PM81 °FPartly cloudy.6 mph89%29.89 "Hg6 mi
10:00 PM82 °FPassing clouds.3 mph89%29.89 "Hg6 mi
9:30 PM82 °FPassing clouds.2 mph84%29.89 "Hg4 mi
9:00 PM82 °FThunderstorms. Passing clouds.3 mph89%29.89 "Hg4 mi
8:46 PM82 °FThunderstorms. Passing clouds.3 mph89%29.89 "Hg4 mi
8:30 PM82 °FThundershowers. Passing clouds.2 mph84%29.89 "Hg6 mi
8:00 PM81 °FThunderstorms. Passing clouds.2 mph89%29.86 "Hg4 mi
7:51 PM81 °FThunderstorms. Passing clouds.3 mph89%29.86 "Hg3 mi
7:30 PM79 °FStrong thunderstorms. Partly cloudy.10 mph94%29.86 "Hg1 mi
7:04 PM82 °FThunderstorms. Partly cloudy.7 mph89%29.86 "Hg3 mi
6:30 PM86 °FPartly cloudy.7 mph75%29.83 "HgN/A
6:00 PM86 °FBroken clouds.7 mph75%29.83 "HgN/A
5:30 PM86 °FBroken clouds.7 mph75%29.83 "HgN/A
5:00 PM86 °FBroken clouds.9 mph75%29.83 "HgN/A
4:30 PM88 °FBroken clouds.8 mph70%29.83 "HgN/A
4:00 PM90 °FBroken clouds.13 mph67%29.80 "HgN/A
3:30 PM90 °FScattered clouds.14 mph71%29.80 "HgN/A
3:00 PM90 °FScattered clouds.13 mph71%29.80 "HgN/A
2:30 PM90 °FScattered clouds.13 mph71%29.80 "HgN/A
2:00 PM91 °FScattered clouds.13 mph63%29.80 "HgN/A
1:30 PM91 °FScattered clouds.13 mph67%29.80 "HgN/A
1:00 PM91 °FPartly sunny.12 mph59%29.83 "HgN/A
Weather by CustomWeather, © 2014

See weather overviewHow to use our weather pages